This is the latest recevied weather packets stored in our database for station/object IW7DVM-13. If no packets are shown the sender has not sent any weather packets the latest 10 day(s).
| Time | Temp. | Humidity | Pressure | Rain* | Wind** | Luminosity | Snow |
|---|---|---|---|---|---|---|---|
| 1787477103 | 32.78° C | 52% | 1009.7 hPa | 0 mm | - | - | - |
| 1787476804 | 32.78° C | 54% | 1009.8 hPa | 0 mm | - | - | - |
| 1787476503 | 32.78° C | 50% | 1009.8 hPa | 0 mm | - | - | - |
| 1787476203 | 32.22° C | 55% | 1009.9 hPa | 0 mm | - | - | - |
| 1787475903 | 32.22° C | 54% | 1009.8 hPa | 0 mm | - | - | - |
| 1787475603 | 32.22° C | 54% | 1009.7 hPa | 0 mm | - | - | - |
| 1787475303 | 31.67° C | 52% | 1009.8 hPa | 0 mm | - | - | - |
| 1787475003 | 31.67° C | 55% | 1009.9 hPa | 0 mm | - | - | - |
| 1787474703 | 31.67° C | 56% | 1009.8 hPa | 0 mm | - | - | - |
| 1787474403 | 31.67° C | 55% | 1009.7 hPa | 0 mm | - | - | - |
| 1787474103 | 31.67° C | 58% | 1009.9 hPa | 0 mm | - | - | - |
| 1787473803 | 31.67° C | 58% | 1009.9 hPa | 0 mm | - | - | - |
| 1787473503 | 31.67° C | 59% | 1009.7 hPa | 0 mm | - | - | - |
| 1787473203 | 31.67° C | 59% | 1009.8 hPa | 0 mm | - | - | - |
| 1787472903 | 31.11° C | 58% | 1009.9 hPa | 0 mm | - | - | - |
| 1787472603 | 31.11° C | 59% | 1009.8 hPa | 0 mm | - | - | - |
| 1787472303 | 31.67° C | 58% | 1009.9 hPa | 0 mm | - | - | - |
| 1787472003 | 31.67° C | 57% | 1009.8 hPa | 0 mm | - | - | - |
| 1787471703 | 31.67° C | 56% | 1009.7 hPa | 0 mm | - | - | - |
| 1787471403 | 32.78° C | 52% | 1009.7 hPa | 0 mm | - | - | - |
| 1787471103 | 32.78° C | 47% | 1009.8 hPa | 0 mm | - | - | - |
| 1787470803 | 32.78° C | 48% | 1009.8 hPa | 0 mm | - | - | - |
| 1787470503 | 32.78° C | 49% | 1009.8 hPa | 0 mm | - | - | - |
| 1787470203 | 32.22° C | 50% | 1009.7 hPa | 0 mm | - | - | - |
| 1787469903 | 32.22° C | 51% | 1009.7 hPa | 0 mm | - | - | - |
* Rain latest hour (hover to see other rain measurements)
** Current wind speed in m/s (hover to see current wind gust speed)